Overview Statistics Trail Chart Weather Telemetry Raw packets
 

This is the latest recevied weather packets stored in our database for station/object N6HGA-1. If no packets are shown the sender has not sent any weather packets the latest 10 day(s).

<< 77 78 79 80 81 82 83 >>
Time Temp. Humidity Pressure Rain* Wind** Luminosity Snow
1788116329 30.56° C 30% - 0 mm - - -
1788115725 30.56° C 29% - 0 mm - - -
1788115425 31.11° C 29% - 0 mm - - -
1788115124 31.11° C 29% - 0 mm - - -
1788114824 31.67° C 30% - 0 mm - - -
1788114223 31.11° C 35% - 0 mm - - -
1788113616 30.56° C 33% - 0 mm - - -
1788113312 30.56° C 34% - 0 mm - - -
1788113008 31.11° C 33% - 0 mm - - -
1788112708 30.56° C 34% - 0 mm - - -
1788112407 30.56° C 33% - 0 mm - - -
1788112106 30.56° C 33% - 0 mm - - -
1788111807 30° C 33% - 0 mm - - -
1788111205 29.44° C 38% - 0 mm - - -
1788110904 28.89° C 38% - 0 mm - - -
1788110604 28.33° C 40% - 0 mm - - -
1788110304 28.33° C 41% - 0 mm - - -
1788110003 27.78° C 41% - 0 mm - - -
1788109703 27.22° C 42% - 0 mm - - -
1788109403 27.22° C 44% - 0 mm - - -
1788109100 26.67° C 46% - 0 mm - - -
1788108798 26.67° C 46% - 0 mm - - -
1788108497 26.67° C 47% - 0 mm - - -
1788107596 26.11° C 47% - 0 mm - - -
1788107296 26.11° C 49% - 0 mm - - -

* Rain since midnight (hover to see other rain measurements)
** Current wind speed in m/s (hover to see current wind gust speed)